| time (UTC) | temp F | wind direction | speed MPH | gust MPH | rain 1hr in | rain 24hr in | rain mn in | humidity % | barometer mb |
| 20260510093514 | 34 | 0 | 0.0 | 0.0 | 0.00 | 0.26 | 0.00 | 87 | 1013.3 |
| 20260510093040 | 34 | 0 | 0.0 | 0.0 | 0.00 | 0.26 | 0.00 | 87 | 1013.2 |
| 20260510092514 | 35 | 0 | 0.0 | 0.0 | 0.00 | 0.26 | 0.00 | 87 | 1013.2 |
| 20260510092013 | 35 | 0 | 0.0 | 0.0 | 0.00 | 0.26 | 0.00 | 87 | 1013.0 |
| 20260510091532 | 35 | 0 | 0.0 | 0.0 | 0.00 | 0.26 | 0.00 | 86 | 1012.9 |
| 20260510091013 | 35 | 0 | 0.0 | 0.0 | 0.00 | 0.26 | 0.00 | 86 | 1012.9 |
| 20260510090513 | 35 | 0 | 0.0 | 0.0 | 0.00 | 0.26 | 0.00 | 86 | 1012.6 |
| 20260510090035 | 35 | 0 | 0.0 | 0.0 | 0.00 | 0.26 | 0.00 | 86 | 1012.5 |
| 20260510085512 | 35 | 0 | 0.0 | 0.0 | 0.00 | 0.26 | 0.00 | 86 | 1012.5 |
| 20260510085016 | 35 | 0 | 0.0 | 0.0 | 0.00 | 0.26 | 0.00 | 85 | 1012.4 |
| 20260510084534 | 35 | 0 | 0.0 | 0.0 | 0.00 | 0.26 | 0.00 | 85 | 1012.3 |
| 20260510084014 | 36 | 0 | 0.0 | 0.0 | 0.00 | 0.26 | 0.00 | 85 | 1012.2 |
| 20260510083514 | 36 | 0 | 0.0 | 0.0 | 0.00 | 0.26 | 0.00 | 84 | 1012.1 |
| 20260510083033 | 36 | 0 | 0.0 | 0.0 | 0.00 | 0.26 | 0.00 | 84 | 1012.0 |
| 20260510082512 | 36 | 0 | 0.0 | 0.0 | 0.00 | 0.26 | 0.00 | 84 | 1012.0 |
| 20260510082012 | 36 | 0 | 0.0 | 0.0 | 0.00 | 0.26 | 0.00 | 83 | 1011.9 |
| 20260510081529 | 37 | 0 | 0.0 | 0.0 | 0.00 | 0.26 | 0.00 | 83 | 1011.9 |
| 20260510081013 | 37 | 0 | 0.0 | 0.0 | 0.00 | 0.26 | 0.00 | 84 | 1011.8 |
| 20260510080514 | 37 | 0 | 0.0 | 0.0 | 0.00 | 0.26 | 0.00 | 83 | 1011.9 |
| 20260510080031 | 37 | 0 | 0.0 | 0.0 | 0.00 | 0.26 | 0.00 | 83 | 1011.8 |
| 20260510075514 | 37 | 0 | 0.0 | 0.0 | 0.00 | 0.26 | 0.00 | 83 | 1011.8 |
| 20260510075013 | 38 | 0 | 0.0 | 0.0 | 0.00 | 0.26 | 0.00 | 82 | 1011.7 |
| 20260510074530 | 38 | 0 | 0.0 | 0.0 | 0.00 | 0.26 | 0.00 | 81 | 1011.7 |
| 20260510074013 | 38 | 0 | 0.0 | 0.0 | 0.00 | 0.26 | 0.00 | 79 | 1011.6 |
| 20260510073514 | 38 | 0 | 0.0 | 0.0 | 0.00 | 0.26 | 0.00 | 78 | 1011.5 |
| 20260510073030 | 38 | 0 | 0.0 | 0.0 | 0.00 | 0.26 | 0.00 | 78 | 1011.4 |
| 20260510072513 | 39 | 0 | 0.0 | 0.0 | 0.00 | 0.26 | 0.00 | 78 | 1011.4 |
| 20260510072016 | 39 | 0 | 0.0 | 0.0 | 0.00 | 0.26 | 0.00 | 78 | 1011.4 |
| 20260510071538 | 39 | 0 | 0.0 | 0.0 | 0.00 | 0.26 | 0.00 | 77 | 1011.3 |
| 20260510071012 | 40 | 0 | 0.0 | 0.0 | 0.00 | 0.26 | 0.00 | 77 | 1011.3 |
| 20260510070516 | 40 | 0 | 0.0 | 0.0 | 0.00 | 0.26 | 0.00 | 78 | 1011.2 |
| 20260510070031 | 40 | 0 | 0.0 | 0.0 | 0.00 | 0.26 | 0.00 | 75 | 1011.2 |
| 20260510065514 | 40 | 0 | 0.0 | 0.0 | 0.00 | 0.26 | 0.00 | 75 | 1011.2 |
| 20260510065013 | 41 | 0 | 0.0 | 0.0 | 0.00 | 0.26 | 0.00 | 74 | 1011.1 |
| 20260510064530 | 41 | 0 | 0.0 | 1.0 | 0.00 | 0.26 | 0.00 | 74 | 1011.2 |
| 20260510064012 | 41 | 0 | 0.0 | 1.0 | 0.00 | 0.26 | 0.00 | 74 | 1011.2 |
| 20260510063516 | 41 | 0 | 0.0 | 2.0 | 0.00 | 0.26 | 0.00 | 73 | 1011.2 |
| 20260510063029 | 41 | 0 | 0.0 | 2.0 | 0.00 | 0.26 | 0.00 | 75 | 1011.2 |
| 20260510062511 | 41 | 0 | 0.0 | 2.0 | 0.00 | 0.26 | 0.00 | 73 | 1011.1 |
| 20260510062014 | 42 | 0 | 0.0 | 2.0 | 0.00 | 0.26 | 0.00 | 74 | 1011.1 |
| 20260510061539 | 42 | 0 | 0.0 | 2.0 | 0.00 | 0.26 | 0.00 | 73 | 1011.1 |
| 20260510061013 | 42 | 327 | 0.0 | 2.0 | 0.00 | 0.26 | 0.00 | 74 | 1011.0 |
| 20260510060515 | 42 | 0 | 0.0 | 2.0 | 0.00 | 0.26 | 0.00 | 74 | 1011.0 |
| 20260510060030 | 42 | 0 | 0.0 | 0.0 | 0.00 | 0.26 | 0.00 | 73 | 1011.0 |
| 20260510055512 | 42 | 0 | 0.0 | 0.0 | 0.00 | 0.26 | 0.00 | 74 | 1011.1 |
| 20260510055011 | 43 | 0 | 0.0 | 1.0 | 0.00 | 0.26 | 0.00 | 74 | 1011.0 |
| 20260510054532 | 43 | 0 | 0.0 | 2.0 | 0.00 | 0.26 | 0.00 | 73 | 1011.0 |
| 20260510054014 | 43 | 0 | 0.0 | 2.0 | 0.00 | 0.26 | 0.00 | 71 | 1010.9 |
| 20260510053514 | 43 | 329 | 0.0 | 2.0 | 0.00 | 0.26 | 0.00 | 71 | 1010.8 |
| 20260510053031 | 44 | 337 | 0.0 | 2.0 | 0.00 | 0.26 | 0.00 | 71 | 1010.6 |
| 20260510052517 | 44 | 0 | 0.0 | 2.0 | 0.00 | 0.26 | 0.00 | 70 | 1010.5 |
| 20260510052011 | 44 | 342 | 0.0 | 3.0 | 0.00 | 0.26 | 0.00 | 70 | 1010.5 |
| 20260510051532 | 44 | 342 | 0.0 | 4.0 | 0.00 | 0.26 | 0.00 | 69 | 1010.5 |
| 20260510051011 | 45 | 342 | 0.0 | 4.0 | 0.00 | 0.26 | 0.00 | 69 | 1010.3 |
| 20260510050512 | 45 | 341 | 1.0 | 4.0 | 0.00 | 0.26 | 0.00 | 68 | 1010.2 |
| 20260510050029 | 45 | 336 | 1.0 | 4.0 | 0.00 | 0.26 | 0.00 | 67 | 1010.2 |
| 20260510045512 | 45 | 337 | 1.0 | 5.0 | 0.00 | 0.26 | 0.00 | 67 | 1010.0 |
| 20260510045013 | 46 | 333 | 2.0 | 5.0 | 0.00 | 0.26 | 0.00 | 66 | 1010.0 |
| 20260510044530 | 46 | 322 | 1.0 | 5.0 | 0.00 | 0.26 | 0.00 | 66 | 1009.9 |
| 20260510044011 | 46 | 328 | 1.0 | 4.0 | 0.00 | 0.26 | 0.00 | 67 | 1009.8 |
| 20260510043512 | 46 | 328 | 1.0 | 4.0 | 0.00 | 0.26 | 0.00 | 66 | 1009.7 |
| 20260510043034 | 46 | 294 | 0.0 | 2.0 | 0.00 | 0.26 | 0.00 | 68 | 1009.6 |
| 20260510042513 | 46 | 0 | 0.0 | 2.0 | 0.00 | 0.26 | 0.00 | 68 | 1009.6 |
| 20260510042012 | 47 | 0 | 0.0 | 4.0 | 0.00 | 0.26 | 0.00 | 67 | 1009.5 |
| 20260510041531 | 47 | 336 | 1.0 | 4.0 | 0.00 | 0.26 | 0.00 | 67 | 1009.3 |
| 20260510041011 | 47 | 352 | 0.0 | 4.0 | 0.00 | 0.26 | 0.00 | 67 | 1009.3 |
| 20260510040512 | 47 | 0 | 1.0 | 3.0 | 0.00 | 0.26 | 0.00 | 68 | 1009.3 |
| 20260510040031 | 47 | 329 | 0.0 | 2.0 | 0.00 | 0.26 | 0.00 | 67 | 1009.2 |
| 20260510035511 | 47 | 0 | 0.0 | 2.0 | 0.00 | 0.26 | 0.26 | 68 | 1009.0 |
| 20260510035011 | 48 | 0 | 0.0 | 2.0 | 0.00 | 0.26 | 0.26 | 68 | 1009.3 |
| 20260510034530 | 48 | 345 | 0.0 | 2.0 | 0.00 | 0.26 | 0.26 | 67 | 1009.2 |
| 20260510034011 | 48 | 351 | 0.0 | 2.0 | 0.00 | 0.26 | 0.26 | 67 | 1008.9 |
| 20260510033512 | 48 | 0 | 0.0 | 2.0 | 0.00 | 0.26 | 0.26 | 67 | 1008.9 |
| 20260510033031 | 48 | 353 | 0.0 | 2.0 | 0.00 | 0.26 | 0.26 | 66 | 1008.6 |
| 20260510032513 | 49 | 355 | 0.0 | 2.0 | 0.00 | 0.26 | 0.26 | 68 | 1008.5 |
| 20260510032015 | 49 | 337 | 0.0 | 4.0 | 0.00 | 0.26 | 0.26 | 65 | 1008.7 |
| 20260510031542 | 49 | 331 | 1.0 | 4.0 | 0.00 | 0.26 | 0.26 | 65 | 1008.9 |
| 20260510031011 | 49 | 341 | 0.0 | 4.0 | 0.00 | 0.26 | 0.26 | 67 | 1008.5 |
| 20260510030513 | 49 | 14 | 1.0 | 4.0 | 0.00 | 0.26 | 0.26 | 64 | 1008.6 |
| 20260510030030 | 50 | 0 | 0.0 | 4.0 | 0.00 | 0.26 | 0.26 | 66 | 1009.1 |
| 20260510025515 | 50 | 304 | 0.0 | 3.0 | 0.00 | 0.26 | 0.26 | 65 | 1008.7 |
| 20260510025013 | 50 | 9 | 1.0 | 3.0 | 0.00 | 0.26 | 0.26 | 65 | 1007.7 |
| 20260510024541 | 50 | 346 | 1.0 | 3.0 | 0.00 | 0.26 | 0.26 | 65 | 1007.8 |
| 20260510024013 | 50 | 335 | 1.0 | 3.0 | 0.00 | 0.26 | 0.26 | 64 | 1008.0 |
| 20260510023513 | 50 | 0 | 1.0 | 3.0 | 0.00 | 0.26 | 0.26 | 63 | 1007.8 |
| 20260510023029 | 50 | 335 | 1.0 | 3.0 | 0.00 | 0.26 | 0.26 | 66 | 1007.6 |
| 20260510022514 | 51 | 342 | 1.0 | 3.0 | 0.00 | 0.26 | 0.26 | 64 | 1007.6 |
| 20260510022011 | 51 | 2 | 1.0 | 4.0 | 0.00 | 0.26 | 0.26 | 64 | 1007.5 |
| 20260510021530 | 51 | 351 | 1.0 | 4.0 | 0.00 | 0.26 | 0.26 | 65 | 1007.4 |
| 20260510021011 | 51 | 0 | 0.0 | 3.0 | 0.00 | 0.26 | 0.26 | 64 | 1007.4 |
| 20260510020514 | 51 | 0 | 1.0 | 3.0 | 0.00 | 0.26 | 0.26 | 64 | 1007.2 |
| 20260510020032 | 51 | 3 | 1.0 | 3.0 | 0.00 | 0.26 | 0.26 | 63 | 1006.9 |
| 20260510015512 | 51 | 328 | 1.0 | 4.0 | 0.00 | 0.26 | 0.26 | 63 | 1006.8 |
| 20260510015012 | 52 | 351 | 1.0 | 4.0 | 0.00 | 0.26 | 0.26 | 64 | 1006.7 |
| 20260510014534 | 52 | 359 | 1.0 | 4.0 | 0.00 | 0.26 | 0.26 | 63 | 1006.5 |
| 20260510014013 | 52 | 320 | 1.0 | 5.0 | 0.00 | 0.26 | 0.26 | 62 | 1006.8 |
| 20260510013514 | 52 | 337 | 2.0 | 5.0 | 0.00 | 0.26 | 0.26 | 63 | 1006.7 |
| 20260510013029 | 52 | 322 | 1.0 | 6.0 | 0.00 | 0.26 | 0.26 | 64 | 1006.6 |
| 20260510012513 | 52 | 342 | 3.0 | 6.0 | 0.00 | 0.26 | 0.26 | 63 | 1006.5 |
| 20260510012011 | 52 | 334 | 2.0 | 6.0 | 0.00 | 0.26 | 0.26 | 64 | 1006.4 |
| 20260510011542 | 53 | 338 | 2.0 | 6.0 | 0.00 | 0.26 | 0.26 | 63 | 1006.2 |
| 20260510011011 | 53 | 332 | 2.0 | 8.0 | 0.00 | 0.26 | 0.26 | 63 | 1006.0 |
| 20260510010513 | 53 | 343 | 3.0 | 8.0 | 0.00 | 0.26 | 0.26 | 62 | 1005.9 |
| 20260510010031 | 54 | 344 | 2.0 | 6.0 | 0.00 | 0.26 | 0.26 | 63 | 1005.9 |
| 20260510005514 | 54 | 272 | 2.0 | 6.0 | 0.00 | 0.26 | 0.26 | 63 | 1005.8 |
| 20260510005013 | 54 | 333 | 2.0 | 7.0 | 0.00 | 0.26 | 0.26 | 63 | 1005.8 |
| 20260510004533 | 55 | 265 | 2.0 | 7.0 | 0.00 | 0.26 | 0.26 | 63 | 1005.8 |
| 20260510004013 | 55 | 278 | 0.0 | 3.0 | 0.00 | 0.26 | 0.26 | 66 | 1005.5 |
| 20260510003512 | 55 | 330 | 0.0 | 2.0 | 0.00 | 0.26 | 0.26 | 65 | 1005.4 |
| 20260510003056 | 56 | 0 | 0.0 | 3.0 | 0.00 | 0.26 | 0.26 | 65 | 1005.2 |
| 20260510002516 | 56 | 253 | 1.0 | 3.0 | 0.00 | 0.26 | 0.26 | 66 | 1005.0 |
| 20260510002013 | 56 | 0 | 0.0 | 1.0 | 0.00 | 0.26 | 0.26 | 64 | 1004.9 |
| 20260510001531 | 57 | 0 | 0.0 | 2.0 | 0.00 | 0.26 | 0.26 | 63 | 1004.9 |
| 20260510001012 | 57 | 0 | 0.0 | 2.0 | 0.00 | 0.26 | 0.26 | 63 | 1004.7 |
| 20260510000513 | 57 | 310 | 0.0 | 4.0 | 0.00 | 0.26 | 0.26 | 61 | 1004.7 |
| 20260510000031 | 57 | 318 | 1.0 | 4.0 | 0.00 | 0.26 | 0.26 | 61 | 1004.6 |
| 20260509235512 | 58 | 341 | 1.0 | 4.0 | 0.00 | 0.26 | 0.26 | 60 | 1004.5 |
| 20260509235010 | 58 | 334 | 1.0 | 4.0 | 0.00 | 0.26 | 0.26 | 59 | 1004.4 |
| 20260509234530 | 59 | 337 | 1.0 | 6.0 | 0.00 | 0.26 | 0.26 | 59 | 1004.3 |
| 20260509234013 | 59 | 351 | 1.0 | 6.0 | 0.00 | 0.26 | 0.26 | 57 | 1004.1 |
| 20260509233513 | 60 | 328 | 2.0 | 6.0 | 0.00 | 0.26 | 0.26 | 57 | 1004.0 |
| 20260509233031 | 61 | 342 | 3.0 | 6.0 | 0.00 | 0.26 | 0.26 | 55 | 1003.8 |
| 20260509232512 | 62 | 351 | 1.0 | 8.0 | 0.00 | 0.26 | 0.26 | 58 | 1003.6 |
| 20260509232013 | 62 | 274 | 2.0 | 8.0 | 0.00 | 0.26 | 0.26 | 54 | 1003.5 |
| 20260509231540 | 63 | 272 | 3.0 | 7.0 | 0.00 | 0.26 | 0.26 | 55 | 1003.5 |
| 20260509231017 | 63 | 264 | 2.0 | 13.0 | 0.00 | 0.26 | 0.26 | 55 | 1003.4 |
| 20260509230511 | 63 | 251 | 4.0 | 14.0 | 0.00 | 0.26 | 0.26 | 53 | 1003.4 |
| 20260509230034 | 63 | 266 | 5.0 | 14.0 | 0.00 | 0.26 | 0.26 | 53 | 1003.3 |
| 20260509225512 | 63 | 279 | 2.0 | 10.0 | 0.00 | 0.26 | 0.26 | 60 | 1003.2 |
| 20260509225012 | 62 | 276 | 3.0 | 10.0 | 0.00 | 0.26 | 0.26 | 66 | 1003.1 |
| 20260509224534 | 62 | 296 | 0.0 | 4.0 | 0.00 | 0.26 | 0.26 | 69 | 1003.1 |
| 20260509224013 | 62 | 0 | 0.0 | 4.0 | 0.00 | 0.26 | 0.26 | 67 | 1002.9 |
| 20260509223512 | 62 | 0 | 0.0 | 6.0 | 0.00 | 0.26 | 0.26 | 68 | 1002.9 |
| 20260509223030 | 62 | 0 | 0.0 | 6.0 | 0.00 | 0.26 | 0.26 | 69 | 1002.9 |
| 20260509222513 | 62 | 252 | 1.0 | 6.0 | 0.00 | 0.26 | 0.26 | 67 | 1002.7 |
| 20260509222014 | 62 | 289 | 0.0 | 6.0 | 0.00 | 0.26 | 0.26 | 70 | 1002.7 |
| 20260509221529 | 61 | 0 | 0.0 | 3.0 | 0.00 | 0.26 | 0.26 | 71 | 1002.7 |
| 20260509221010 | 61 | 0 | 0.0 | 3.0 | 0.00 | 0.26 | 0.26 | 70 | 1002.5 |
| 20260509220512 | 61 | 0 | 0.0 | 3.0 | 0.00 | 0.26 | 0.26 | 72 | 1002.6 |
| 20260509220032 | 60 | 0 | 0.0 | 3.0 | 0.00 | 0.26 | 0.26 | 72 | 1002.5 |
| 20260509215514 | 60 | 0 | 0.0 | 3.0 | 0.00 | 0.26 | 0.26 | 72 | 1002.4 |
| 20260509215013 | 60 | 0 | 0.0 | 3.0 | 0.00 | 0.26 | 0.26 | 74 | 1002.3 |
| 20260509214532 | 60 | 0 | 1.0 | 5.0 | 0.00 | 0.26 | 0.26 | 76 | 1002.3 |
| 20260509214013 | 59 | 247 | 1.0 | 5.0 | 0.00 | 0.26 | 0.26 | 78 | 1002.4 |
| 20260509213516 | 58 | 192 | 1.0 | 6.0 | 0.00 | 0.26 | 0.26 | 79 | 1002.4 |
| 20260509213030 | 57 | 256 | 2.0 | 6.0 | 0.00 | 0.26 | 0.26 | 79 | 1002.5 |
| 20260509212511 | 57 | 223 | 1.0 | 6.0 | 0.00 | 0.26 | 0.26 | 81 | 1002.5 |
| 20260509212017 | 56 | 204 | 1.0 | 6.0 | 0.00 | 0.26 | 0.26 | 81 | 1002.5 |
| 20260509211535 | 55 | 229 | 1.0 | 4.0 | 0.00 | 0.26 | 0.26 | 80 | 1002.6 |
| 20260509211012 | 55 | 199 | 1.0 | 5.0 | 0.00 | 0.26 | 0.26 | 79 | 1002.4 |
| 20260509210512 | 55 | 0 | 1.0 | 5.0 | 0.00 | 0.26 | 0.26 | 79 | 1002.6 |
| 20260509210032 | 55 | 218 | 2.0 | 8.0 | 0.02 | 0.26 | 0.26 | 80 | 1002.8 |
| 20260509205513 | 56 | 214 | 2.0 | 9.0 | 0.10 | 0.26 | 0.26 | 82 | 1002.9 |
| 20260509205014 | 56 | 233 | 2.0 | 9.0 | 0.16 | 0.26 | 0.26 | 83 | 1003.0 |
| 20260509204530 | 55 | 205 | 4.0 | 10.0 | 0.26 | 0.26 | 0.26 | 83 | 1002.8 |
| 20260509204016 | 54 | 227 | 3.0 | 10.0 | 0.26 | 0.26 | 0.26 | 86 | 1002.7 |
| 20260509203513 | 53 | 224 | 1.0 | 8.0 | 0.26 | 0.26 | 0.26 | 88 | 1002.7 |
| 20260509203036 | 52 | 167 | 2.0 | 8.0 | 0.26 | 0.26 | 0.26 | 89 | 1002.7 |
| 20260509202512 | 51 | 191 | 0.0 | 3.0 | 0.26 | 0.26 | 0.26 | 89 | 1002.8 |
| 20260509202012 | 51 | 138 | 1.0 | 3.0 | 0.26 | 0.26 | 0.26 | 88 | 1002.7 |
| 20260509201533 | 50 | 244 | 0.0 | 5.0 | 0.26 | 0.26 | 0.26 | 88 | 1002.9 |
| 20260509201012 | 50 | 44 | 1.0 | 7.0 | 0.26 | 0.26 | 0.26 | 85 | 1002.9 |
| 20260509200512 | 50 | 272 | 2.0 | 16.0 | 0.26 | 0.26 | 0.26 | 84 | 1002.9 |
| 20260509200030 | 51 | 206 | 3.0 | 16.0 | 0.23 | 0.23 | 0.23 | 81 | 1003.2 |
| 20260509195518 | 54 | 200 | 3.0 | 16.0 | 0.14 | 0.14 | 0.14 | 76 | 1003.7 |
| 20260509195013 | 58 | 215 | 6.0 | 16.0 | 0.09 | 0.09 | 0.09 | 70 | 1003.5 |
| 20260509194536 | 61 | 231 | 3.0 | 10.0 | 0.00 | 0.00 | 0.00 | 70 | 1002.5 |
| 20260509194011 | 61 | 241 | 4.0 | 12.0 | 0.00 | 0.00 | 0.00 | 68 | 1001.9 |
| 20260509193512 | 61 | 197 | 5.0 | 14.0 | 0.00 | 0.00 | 0.00 | 66 | 1001.8 |
| 20260509193032 | 61 | 190 | 5.0 | 14.0 | 0.00 | 0.00 | 0.00 | 66 | 1001.8 |
| 20260509192514 | 62 | 170 | 6.0 | 15.0 | 0.00 | 0.00 | 0.00 | 65 | 1001.9 |
| 20260509192013 | 62 | 286 | 3.0 | 15.0 | 0.00 | 0.00 | 0.00 | 64 | 1001.8 |
| 20260509191530 | 63 | 206 | 4.0 | 12.0 | 0.00 | 0.00 | 0.00 | 63 | 1001.6 |
| 20260509191015 | 63 | 185 | 4.0 | 10.0 | 0.00 | 0.00 | 0.00 | 64 | 1001.6 |
| 20260509190512 | 63 | 195 | 3.0 | 13.0 | 0.00 | 0.00 | 0.00 | 64 | 1001.7 |
| 20260509190034 | 63 | 185 | 4.0 | 13.0 | 0.00 | 0.00 | 0.00 | 64 | 1002.0 |
| 20260509185514 | 63 | 145 | 5.0 | 12.0 | 0.00 | 0.00 | 0.00 | 62 | 1002.0 |
| 20260509185012 | 64 | 194 | 5.0 | 14.0 | 0.00 | 0.00 | 0.00 | 61 | 1002.1 |
| 20260509184534 | 64 | 192 | 7.0 | 14.0 | 0.00 | 0.00 | 0.00 | 60 | 1002.2 |
| 20260509184012 | 64 | 206 | 5.0 | 15.0 | 0.00 | 0.00 | 0.00 | 59 | 1002.0 |
| 20260509183511 | 65 | 211 | 7.0 | 19.0 | 0.00 | 0.00 | 0.00 | 58 | 1001.9 |
| 20260509183033 | 65 | 192 | 5.0 | 19.0 | 0.00 | 0.00 | 0.00 | 59 | 1001.8 |
| 20260509182511 | 65 | 210 | 8.0 | 19.0 | 0.00 | 0.00 | 0.00 | 59 | 1001.7 |
| 20260509182011 | 65 | 180 | 6.0 | 16.0 | 0.00 | 0.00 | 0.00 | 62 | 1001.7 |
| 20260509181542 | 64 | 147 | 4.0 | 16.0 | 0.00 | 0.00 | 0.00 | 60 | 1002.1 |
| 20260509181019 | 64 | 207 | 6.0 | 13.0 | 0.00 | 0.00 | 0.00 | 61 | 1002.0 |
| 20260509180516 | 63 | 180 | 5.0 | 13.0 | 0.00 | 0.00 | 0.00 | 63 | 1002.0 |
| 20260509180030 | 63 | 133 | 4.0 | 11.0 | 0.00 | 0.00 | 0.00 | 63 | 1002.3 |
| 20260509175513 | 63 | 180 | 4.0 | 12.0 | 0.00 | 0.00 | 0.00 | 63 | 1002.6 |
| 20260509175011 | 63 | 201 | 5.0 | 13.0 | 0.00 | 0.00 | 0.00 | 61 | 1002.7 |
| 20260509174532 | 64 | 185 | 2.0 | 13.0 | 0.00 | 0.00 | 0.00 | 59 | 1002.9 |
| 20260509174012 | 64 | 164 | 4.0 | 14.0 | 0.00 | 0.00 | 0.00 | 55 | 1003.0 |
| 20260509173513 | 65 | 112 | 5.0 | 19.0 | 0.00 | 0.00 | 0.00 | 57 | 1002.7 |
| 20260509173032 | 65 | 165 | 8.0 | 19.0 | 0.00 | 0.00 | 0.00 | 57 | 1002.4 |
| 20260509172513 | 66 | 164 | 4.0 | 14.0 | 0.00 | 0.00 | 0.00 | 57 | 1002.0 |
| 20260509172013 | 66 | 171 | 6.0 | 15.0 | 0.00 | 0.00 | 0.00 | 56 | 1002.2 |
| 20260509171532 | 66 | 54 | 5.0 | 16.0 | 0.00 | 0.00 | 0.00 | 55 | 1002.3 |
| 20260509171013 | 66 | 158 | 8.0 | 16.0 | 0.00 | 0.00 | 0.00 | 52 | 1002.3 |
| 20260509170512 | 65 | 191 | 7.0 | 13.0 | 0.00 | 0.00 | 0.00 | 53 | 1002.4 |
| 20260509170030 | 65 | 168 | 6.0 | 13.0 | 0.00 | 0.00 | 0.00 | 54 | 1002.6 |
| 20260509165511 | 65 | 154 | 4.0 | 13.0 | 0.00 | 0.00 | 0.00 | 54 | 1002.7 |
| 20260509165011 | 64 | 185 | 5.0 | 13.0 | 0.00 | 0.00 | 0.00 | 55 | 1003.0 |
| 20260509164529 | 64 | 180 | 4.0 | 11.0 | 0.00 | 0.00 | 0.00 | 56 | 1003.0 |
| 20260509164014 | 64 | 145 | 5.0 | 15.0 | 0.00 | 0.00 | 0.00 | 57 | 1003.2 |
| 20260509163517 | 64 | 164 | 5.0 | 15.0 | 0.00 | 0.00 | 0.00 | 58 | 1003.3 |
| 20260509163033 | 63 | 218 | 5.0 | 15.0 | 0.00 | 0.00 | 0.00 | 57 | 1003.3 |
| 20260509162514 | 63 | 147 | 6.0 | 10.0 | 0.00 | 0.00 | 0.00 | 59 | 1003.4 |
| 20260509162015 | 62 | 202 | 3.0 | 15.0 | 0.00 | 0.00 | 0.00 | 62 | 1003.4 |
| 20260509161534 | 62 | 180 | 5.0 | 15.0 | 0.00 | 0.00 | 0.00 | 62 | 1003.5 |
| 20260509161011 | 62 | 206 | 5.0 | 12.0 | 0.00 | 0.00 | 0.00 | 62 | 1003.9 |
| 20260509160515 | 62 | 193 | 3.0 | 11.0 | 0.00 | 0.00 | 0.00 | 66 | 1004.0 |
| 20260509160032 | 61 | 195 | 4.0 | 11.0 | 0.00 | 0.00 | 0.00 | 65 | 1004.1 |
| 20260509155514 | 60 | 175 | 2.0 | 8.0 | 0.00 | 0.00 | 0.00 | 69 | 1004.0 |
| 20260509155014 | 59 | 201 | 2.0 | 6.0 | 0.00 | 0.00 | 0.00 | 70 | 1004.1 |
| 20260509154531 | 59 | 170 | 3.0 | 6.0 | 0.00 | 0.00 | 0.00 | 69 | 1003.8 |
| 20260509154013 | 59 | 175 | 2.0 | 13.0 | 0.00 | 0.00 | 0.00 | 69 | 1004.7 |
| 20260509153511 | 59 | 180 | 2.0 | 13.0 | 0.00 | 0.00 | 0.00 | 69 | 1005.3 |
| 20260509153031 | 59 | 251 | 3.0 | 13.0 | 0.00 | 0.00 | 0.00 | 69 | 1005.3 |
| 20260509152511 | 59 | 239 | 2.0 | 8.0 | 0.00 | 0.00 | 0.00 | 69 | 1005.4 |
| 20260509152013 | 59 | 233 | 2.0 | 7.0 | 0.00 | 0.00 | 0.00 | 69 | 1005.4 |
| 20260509151529 | 59 | 246 | 1.0 | 7.0 | 0.00 | 0.00 | 0.00 | 69 | 1005.3 |
| 20260509151014 | 59 | 283 | 1.0 | 6.0 | 0.00 | 0.00 | 0.00 | 68 | 1005.3 |
| 20260509150514 | 59 | 191 | 3.0 | 11.0 | 0.00 | 0.00 | 0.00 | 68 | 1005.2 |
| 20260509150030 | 59 | 180 | 3.0 | 11.0 | 0.00 | 0.00 | 0.00 | 68 | 1005.0 |
| 20260509145515 | 59 | 150 | 3.0 | 10.0 | 0.00 | 0.00 | 0.00 | 69 | 1005.0 |
| 20260509145012 | 59 | 164 | 4.0 | 10.0 | 0.00 | 0.00 | 0.00 | 70 | 1004.9 |
| 20260509144537 | 58 | 172 | 2.0 | 10.0 | 0.00 | 0.00 | 0.00 | 73 | 1004.8 |
| 20260509144012 | 58 | 210 | 4.0 | 12.0 | 0.00 | 0.00 | 0.00 | 73 | 1004.8 |
| 20260509143511 | 57 | 206 | 3.0 | 13.0 | 0.00 | 0.00 | 0.00 | 73 | 1005.0 |
| 20260509143030 | 57 | 224 | 4.0 | 13.0 | 0.00 | 0.00 | 0.00 | 73 | 1005.0 |
| 20260509142511 | 57 | 245 | 2.0 | 9.0 | 0.00 | 0.00 | 0.00 | 74 | 1005.0 |
| 20260509142012 | 56 | 224 | 1.0 | 10.0 | 0.00 | 0.00 | 0.00 | 78 | 1004.9 |
| 20260509141529 | 55 | 202 | 3.0 | 10.0 | 0.00 | 0.00 | 0.00 | 77 | 1004.8 |
| 20260509141015 | 55 | 151 | 4.0 | 9.0 | 0.00 | 0.00 | 0.00 | 76 | 1004.8 |
| 20260509140510 | 55 | 226 | 3.0 | 9.0 | 0.00 | 0.00 | 0.00 | 78 | 1005.0 |
| 20260509140029 | 55 | 175 | 3.0 | 9.0 | 0.00 | 0.00 | 0.00 | 77 | 1005.0 |
| 20260509135512 | 55 | 180 | 3.0 | 10.0 | 0.00 | 0.00 | 0.00 | 78 | 1005.0 |
| 20260509135013 | 55 | 149 | 3.0 | 11.0 | 0.00 | 0.00 | 0.00 | 78 | 1005.1 |
| 20260509134530 | 55 | 149 | 5.0 | 11.0 | 0.00 | 0.00 | 0.00 | 77 | 1005.2 |
| 20260509134011 | 55 | 175 | 2.0 | 7.0 | 0.00 | 0.00 | 0.00 | 78 | 1005.2 |
| 20260509133511 | 55 | 137 | 3.0 | 9.0 | 0.00 | 0.00 | 0.00 | 78 | 1005.4 |
| 20260509133033 | 54 | 154 | 4.0 | 9.0 | 0.00 | 0.00 | 0.00 | 81 | 1005.3 |
| 20260509132513 | 53 | 185 | 3.0 | 9.0 | 0.00 | 0.00 | 0.00 | 81 | 1005.5 |
| 20260509132013 | 53 | 175 | 4.0 | 10.0 | 0.00 | 0.00 | 0.00 | 81 | 1005.6 |
| 20260509131530 | 53 | 172 | 3.0 | 10.0 | 0.00 | 0.00 | 0.00 | 81 | 1005.6 |
| 20260509131013 | 53 | 158 | 3.0 | 10.0 | 0.00 | 0.00 | 0.00 | 82 | 1005.6 |
| 20260509130513 | 52 | 217 | 1.0 | 8.0 | 0.00 | 0.00 | 0.00 | 84 | 1005.7 |
| 20260509130032 | 52 | 199 | 3.0 | 8.0 | 0.00 | 0.00 | 0.00 | 83 | 1005.6 |
| 20260509125513 | 52 | 204 | 2.0 | 6.0 | 0.00 | 0.00 | 0.00 | 84 | 1005.6 |
| 20260509125011 | 51 | 185 | 2.0 | 5.0 | 0.00 | 0.00 | 0.00 | 86 | 1005.7 |
| 20260509124532 | 51 | 199 | 1.0 | 8.0 | 0.00 | 0.00 | 0.00 | 85 | 1005.8 |
| 20260509124017 | 51 | 169 | 3.0 | 8.0 | 0.00 | 0.00 | 0.00 | 85 | 1005.9 |
| 20260509123514 | 51 | 180 | 3.0 | 8.0 | 0.00 | 0.00 | 0.00 | 86 | 1006.0 |
| 20260509123029 | 51 | 206 | 0.0 | 9.0 | 0.00 | 0.00 | 0.00 | 87 | 1006.0 |
| 20260509122512 | 50 | 175 | 3.0 | 9.0 | 0.00 | 0.00 | 0.00 | 87 | 1005.9 |
| 20260509122012 | 50 | 238 | 4.0 | 9.0 | 0.00 | 0.00 | 0.00 | 87 | 1005.9 |
| 20260509121536 | 50 | 185 | 3.0 | 8.0 | 0.00 | 0.00 | 0.00 | 88 | 1005.7 |
| 20260509121012 | 50 | 112 | 2.0 | 8.0 | 0.00 | 0.00 | 0.00 | 88 | 1005.8 |
| 20260509120512 | 50 | 172 | 2.0 | 7.0 | 0.00 | 0.00 | 0.00 | 88 | 1005.9 |
| 20260509120031 | 50 | 222 | 3.0 | 7.0 | 0.00 | 0.00 | 0.00 | 88 | 1005.9 |
| 20260509115515 | 50 | 218 | 1.0 | 5.0 | 0.00 | 0.00 | 0.00 | 89 | 1005.9 |
| 20260509115011 | 50 | 180 | 1.0 | 6.0 | 0.00 | 0.00 | 0.00 | 88 | 1006.0 |
| 20260509114529 | 50 | 212 | 1.0 | 6.0 | 0.00 | 0.00 | 0.00 | 89 | 1006.0 |
| 20260509114011 | 50 | 161 | 1.0 | 6.0 | 0.00 | 0.00 | 0.00 | 89 | 1006.0 |
| 20260509113511 | 50 | 147 | 2.0 | 6.0 | 0.00 | 0.00 | 0.00 | 88 | 1006.0 |
| 20260509113032 | 50 | 163 | 1.0 | 6.0 | 0.00 | 0.00 | 0.00 | 89 | 1005.9 |
| 20260509112513 | 49 | 171 | 2.0 | 8.0 | 0.00 | 0.00 | 0.00 | 89 | 1005.8 |
| 20260509112012 | 49 | 192 | 2.0 | 8.0 | 0.00 | 0.00 | 0.00 | 89 | 1005.8 |
| 20260509111529 | 49 | 158 | 1.0 | 8.0 | 0.00 | 0.00 | 0.00 | 89 | 1005.9 |
| 20260509111011 | 49 | 185 | 1.0 | 6.0 | 0.00 | 0.00 | 0.00 | 89 | 1005.9 |
| 20260509110511 | 49 | 192 | 1.0 | 4.0 | 0.00 | 0.00 | 0.00 | 89 | 1005.6 |
| 20260509110035 | 49 | 207 | 2.0 | 6.0 | 0.00 | 0.00 | 0.00 | 89 | 1005.6 |
| 20260509105513 | 49 | 196 | 2.0 | 6.0 | 0.00 | 0.00 | 0.00 | 89 | 1005.5 |
| 20260509105014 | 49 | 170 | 1.0 | 4.0 | 0.00 | 0.00 | 0.00 | 89 | 1005.6 |
| 20260509104539 | 49 | 185 | 2.0 | 4.0 | 0.00 | 0.00 | 0.00 | 89 | 1005.6 |
| 20260509104013 | 49 | 163 | 0.0 | 3.0 | 0.00 | 0.00 | 0.00 | 89 | 1005.6 |
| 20260509103512 | 49 | 175 | 1.0 | 3.0 | 0.00 | 0.00 | 0.00 | 89 | 1005.6 |
| 20260509103029 | 49 | 172 | 1.0 | 4.0 | 0.00 | 0.00 | 0.00 | 89 | 1005.7 |
| 20260509102513 | 49 | 172 | 1.0 | 4.0 | 0.00 | 0.00 | 0.00 | 89 | 1005.7 |
| 20260509102011 | 49 | 147 | 1.0 | 4.0 | 0.00 | 0.00 | 0.00 | 89 | 1005.8 |
| 20260509101534 | 49 | 189 | 1.0 | 4.0 | 0.00 | 0.00 | 0.00 | 89 | 1005.9 |
| 20260509101017 | 49 | 170 | 0.0 | 3.0 | 0.00 | 0.00 | 0.00 | 88 | 1006.0 |
| 20260509100513 | 49 | 169 | 1.0 | 4.0 | 0.00 | 0.00 | 0.00 | 88 | 1006.1 |
| 20260509100029 | 49 | 185 | 1.0 | 4.0 | 0.00 | 0.00 | 0.00 | 88 | 1006.1 |
| 20260509095513 | 49 | 150 | 1.0 | 5.0 | 0.00 | 0.00 | 0.00 | 88 | 1006.2 |
| 20260509095011 | 49 | 169 | 2.0 | 5.0 | 0.00 | 0.00 | 0.00 | 88 | 1006.1 |
| 20260509094532 | 49 | 185 | 1.0 | 9.0 | 0.00 | 0.00 | 0.00 | 88 | 1006.1 |
| 20260509094013 | 50 | 146 | 1.0 | 9.0 | 0.00 | 0.00 | 0.00 | 88 | 1006.2 |